Time,TemperatureF,DewpointF,PressureIn,WindDirection,WindDirectionDegrees,WindSpeedMPH,WindSpeedGustMPH,Humidity,HourlyPrecipIn,Conditions,Clouds,dailyrainin,SoftwareType,DateUTC
2013-03-07 00:00:00,36.5,31.0,30.13,ENE,68,0.4,2.2,80,0.00,,,11.94,WUHU216HW,2013-03-07 05:00:00,
2013-03-07 00:01:00,36.5,31.0,30.13,NE,45,0.4,2.2,80,2.59,,,0.50,WUHU216HW,2013-03-07 05:01:00,
2013-03-07 00:06:00,36.5,31.0,30.13,ESE,113,0.9,1.8,80,2.59,,,0.50,WUHU216HW,2013-03-07 05:06:00,
2013-03-07 00:11:00,36.4,30.8,30.13,ENE,68,1.1,1.6,80,2.59,,,0.50,WUHU216HW,2013-03-07 05:11:00,
2013-03-07 00:16:00,36.4,30.8,30.13,ENE,68,0.7,1.1,80,2.59,,,0.50,WUHU216HW,2013-03-07 05:16:00,
2013-03-07 00:21:00,36.4,30.8,30.13,ENE,68,1.6,1.8,80,2.59,,,0.50,WUHU216HW,2013-03-07 05:21:00,
2013-03-07 00:26:00,36.4,30.8,30.12,NE,45,0.9,1.8,80,2.59,,,0.50,WUHU216HW,2013-03-07 05:26:00,
2013-03-07 00:31:00,36.4,30.8,30.12,ENE,68,1.1,2.0,80,2.59,,,0.50,WUHU216HW,2013-03-07 05:31:00,
2013-03-07 00:36:00,36.4,30.8,30.12,ENE,68,1.1,2.0,80,2.59,,,0.50,WUHU216HW,2013-03-07 05:36:00,
2013-03-07 00:41:00,36.2,30.6,30.12,NE,45,0.4,1.3,80,2.59,,,0.50,WUHU216HW,2013-03-07 05:41:00,
2013-03-07 00:46:00,36.2,30.6,30.13,NE,45,0.0,1.1,80,2.59,,,0.50,WUHU216HW,2013-03-07 05:46:00,
2013-03-07 00:51:00,36.2,30.6,30.13,NE,45,0.0,0.7,80,2.59,,,0.50,WUHU216HW,2013-03-07 05:51:00,
2013-03-07 00:56:00,36.0,30.4,30.13,NE,45,0.0,0.0,80,2.59,,,0.50,WUHU216HW,2013-03-07 05:56:00,
2013-03-07 01:01:00,36.0,30.4,30.12,NE,45,0.4,0.9,80,0.00,,,1.00,WUHU216HW,2013-03-07 06:01:00,
2013-03-07 01:06:00,35.8,30.2,30.13,NE,45,0.0,1.6,80,0.00,,,1.00,WUHU216HW,2013-03-07 06:06:00,
2013-03-07 01:11:00,35.6,30.1,30.13,NE,45,0.7,1.6,80,0.00,,,1.00,WUHU216HW,2013-03-07 06:11:00,
2013-03-07 01:16:00,35.8,30.2,30.13,NE,45,0.0,0.9,80,0.00,,,1.00,WUHU216HW,2013-03-07 06:16:00,
2013-03-07 01:21:00,35.6,30.1,30.13,NE,45,0.0,0.9,80,0.00,,,1.00,WUHU216HW,2013-03-07 06:21:00,
2013-03-07 01:26:00,35.6,30.3,30.13,NE,45,0.7,0.9,81,0.00,,,1.00,WUHU216HW,2013-03-07 06:26:00,
2013-03-07 01:31:00,35.6,30.3,30.13,NE,45,0.0,0.9,81,0.00,,,1.00,WUHU216HW,2013-03-07 06:31:00,
2013-03-07 01:36:00,35.6,30.3,30.13,NE,45,0.0,0.7,81,0.00,,,1.00,WUHU216HW,2013-03-07 06:36:00,
2013-03-07 01:41:00,35.6,30.3,30.13,NE,45,0.4,0.7,81,0.00,,,1.00,WUHU216HW,2013-03-07 06:41:00,
2013-03-07 01:46:00,35.6,30.3,30.13,NE,45,0.0,0.7,81,0.00,,,1.00,WUHU216HW,2013-03-07 06:46:00,
2013-03-07 01:51:00,35.6,30.3,30.13,NNE,23,0.0,0.4,81,0.00,,,1.00,WUHU216HW,2013-03-07 06:51:00,
2013-03-07 01:56:00,35.6,30.3,30.13,NNE,23,0.0,0.4,81,0.00,,,1.00,WUHU216HW,2013-03-07 06:56:00,
2013-03-07 02:01:00,35.6,30.3,30.13,NNE,23,0.0,0.0,81,0.00,,,1.50,WUHU216HW,2013-03-07 07:01:00,
2013-03-07 02:06:00,35.5,30.2,30.13,NNE,23,0.0,0.0,81,0.00,,,1.50,WUHU216HW,2013-03-07 07:06:00,
2013-03-07 02:11:00,35.5,30.2,30.13,NNE,23,0.0,0.0,81,0.00,,,1.50,WUHU216HW,2013-03-07 07:11:00,
2013-03-07 02:16:00,35.5,30.2,30.13,North,0,0.0,0.0,81,0.00,,,1.50,WUHU216HW,2013-03-07 07:16:00,
2013-03-07 02:21:00,35.5,30.2,30.13,North,0,0.0,0.0,81,0.00,,,1.50,WUHU216HW,2013-03-07 07:21:00,
2013-03-07 02:26:00,35.3,30.0,30.13,North,0,0.4,0.4,81,0.00,,,1.50,WUHU216HW,2013-03-07 07:26:00,
2013-03-07 02:31:00,35.3,30.0,30.13,ENE,68,0.4,1.1,81,0.00,,,1.50,WUHU216HW,2013-03-07 07:31:00,
2013-03-07 02:36:00,35.1,29.8,30.13,NE,45,0.2,1.1,81,0.00,,,1.50,WUHU216HW,2013-03-07 07:36:00,
2013-03-07 02:41:00,35.1,30.1,30.13,NE,45,1.1,1.1,82,0.00,,,1.50,WUHU216HW,2013-03-07 07:41:00,
2013-03-07 02:46:00,34.9,29.9,30.13,NE,45,0.7,1.8,82,0.00,,,1.50,WUHU216HW,2013-03-07 07:46:00,
2013-03-07 02:51:00,34.9,29.9,30.13,NE,45,1.1,2.0,82,0.00,,,1.50,WUHU216HW,2013-03-07 07:51:00,
2013-03-07 02:56:00,34.9,29.9,30.13,NE,45,0.4,2.0,82,0.00,,,1.50,WUHU216HW,2013-03-07 07:56:00,
2013-03-07 03:01:00,34.9,29.9,30.13,NE,45,1.3,2.0,82,0.00,,,1.99,WUHU216HW,2013-03-07 08:01:00,
2013-03-07 03:06:00,34.9,29.9,30.13,NE,45,0.4,2.0,82,0.00,,,1.99,WUHU216HW,2013-03-07 08:06:00,
2013-03-07 03:11:00,34.9,29.9,30.13,NE,45,0.9,2.0,82,0.00,,,1.99,WUHU216HW,2013-03-07 08:11:00,
2013-03-07 03:16:00,34.9,29.9,30.13,NE,45,0.7,2.0,82,0.00,,,1.99,WUHU216HW,2013-03-07 08:16:00,
2013-03-07 03:21:00,34.9,29.9,30.13,NE,45,1.6,1.6,82,0.00,,,1.99,WUHU216HW,2013-03-07 08:21:00,
2013-03-07 03:26:00,34.9,29.9,30.13,NE,45,0.0,1.6,82,0.00,,,1.99,WUHU216HW,2013-03-07 08:26:00,
2013-03-07 03:31:00,34.9,29.9,30.13,NNE,23,0.2,1.3,82,0.00,,,1.99,WUHU216HW,2013-03-07 08:31:00,
2013-03-07 03:36:00,34.9,29.9,30.13,NE,45,1.1,1.1,82,0.00,,,1.99,WUHU216HW,2013-03-07 08:36:00,
2013-03-07 03:41:00,34.9,29.9,30.13,NE,45,0.0,1.8,82,0.00,,,1.99,WUHU216HW,2013-03-07 08:41:00,
2013-03-07 03:46:00,34.7,30.1,30.13,ENE,68,1.1,1.8,83,0.00,,,1.99,WUHU216HW,2013-03-07 08:46:00,
2013-03-07 03:51:00,34.7,30.1,30.14,NNE,23,0.0,2.5,83,0.00,,,1.99,WUHU216HW,2013-03-07 08:51:00,
2013-03-07 03:56:00,34.7,30.1,30.14,NNE,23,0.7,2.5,83,0.00,,,1.99,WUHU216HW,2013-03-07 08:56:00,
2013-03-07 04:01:00,34.7,30.1,30.14,NE,45,0.9,1.1,83,0.00,,,2.49,WUHU216HW,2013-03-07 09:01:00,
2013-03-07 04:06:00,34.6,29.9,30.14,NE,45,0.2,1.8,83,0.00,,,2.49,WUHU216HW,2013-03-07 09:06:00,
2013-03-07 04:11:00,34.7,30.1,30.14,NE,45,0.4,1.8,83,0.00,,,2.49,WUHU216HW,2013-03-07 09:11:00,
2013-03-07 04:17:00,34.6,29.9,30.14,NNE,23,0.4,3.1,83,0.00,,,2.49,WUHU216HW,2013-03-07 09:17:00,
2013-03-07 04:22:00,34.6,29.9,30.14,NE,45,0.7,3.1,83,0.00,,,2.49,WUHU216HW,2013-03-07 09:22:00,
2013-03-07 04:27:00,34.6,29.9,30.14,NE,45,1.1,2.9,83,0.00,,,2.49,WUHU216HW,2013-03-07 09:27:00,
2013-03-07 04:32:00,34.6,29.9,30.14,ENE,68,0.9,2.9,83,0.00,,,2.49,WUHU216HW,2013-03-07 09:32:00,
2013-03-07 04:37:00,34.6,29.9,30.14,ESE,113,0.9,2.5,83,0.00,,,2.49,WUHU216HW,2013-03-07 09:37:00,
2013-03-07 04:42:00,34.7,30.1,30.14,ENE,68,0.0,2.0,83,0.00,,,2.49,WUHU216HW,2013-03-07 09:42:00,
2013-03-07 04:47:00,34.6,29.9,30.14,NE,45,0.4,1.6,83,0.00,,,2.49,WUHU216HW,2013-03-07 09:47:00,
2013-03-07 04:52:00,34.6,30.2,30.14,NE,45,0.9,2.0,84,0.00,,,2.49,WUHU216HW,2013-03-07 09:52:00,
2013-03-07 04:57:00,34.6,30.2,30.14,ESE,113,0.7,2.2,84,0.00,,,2.49,WUHU216HW,2013-03-07 09:57:00,
2013-03-07 05:02:00,34.6,30.2,30.14,NNE,23,0.4,2.2,84,0.00,,,2.99,WUHU216HW,2013-03-07 10:02:00,
2013-03-07 05:07:00,34.6,30.2,30.14,NE,45,2.0,2.0,84,0.00,,,2.99,WUHU216HW,2013-03-07 10:07:00,
2013-03-07 05:12:00,34.6,30.2,30.14,NE,45,1.1,2.5,84,0.00,,,2.99,WUHU216HW,2013-03-07 10:12:00,
2013-03-07 05:17:00,34.6,30.2,30.14,NE,45,1.6,2.5,84,0.00,,,2.99,WUHU216HW,2013-03-07 10:17:00,
2013-03-07 05:22:00,34.6,30.2,30.14,NE,45,0.4,2.0,84,0.00,,,2.99,WUHU216HW,2013-03-07 10:22:00,
2013-03-07 05:27:00,34.6,30.2,30.13,NE,45,0.7,2.0,84,0.00,,,2.99,WUHU216HW,2013-03-07 10:27:00,
2013-03-07 05:32:00,34.6,30.2,30.14,ENE,68,2.0,2.2,84,0.00,,,2.99,WUHU216HW,2013-03-07 10:32:00,
2013-03-07 05:37:00,34.6,30.2,30.14,ENE,68,1.1,2.5,84,0.00,,,2.99,WUHU216HW,2013-03-07 10:37:00,
2013-03-07 05:42:00,34.6,30.2,30.14,East,90,1.1,2.5,84,0.00,,,2.99,WUHU216HW,2013-03-07 10:42:00,
2013-03-07 05:47:00,34.6,30.2,30.14,NE,45,1.8,2.0,84,0.00,,,2.99,WUHU216HW,2013-03-07 10:47:00,
2013-03-07 05:52:00,34.7,30.3,30.14,ENE,68,0.2,2.0,84,0.00,,,2.99,WUHU216HW,2013-03-07 10:52:00,
2013-03-07 05:57:00,34.6,30.2,30.14,ENE,68,1.8,1.8,84,0.00,,,2.99,WUHU216HW,2013-03-07 10:57:00,
2013-03-07 06:02:00,34.6,30.2,30.15,NE,45,0.0,2.0,84,0.00,,,3.49,WUHU216HW,2013-03-07 11:02:00,
2013-03-07 06:07:00,34.6,30.2,30.14,ESE,113,0.4,2.0,84,0.00,,,3.49,WUHU216HW,2013-03-07 11:07:00,
2013-03-07 06:12:00,34.6,30.2,30.14,NE,45,0.9,1.8,84,0.00,,,3.49,WUHU216HW,2013-03-07 11:12:00,
2013-03-07 06:17:00,34.6,30.2,30.15,NE,45,0.9,2.9,84,0.00,,,3.49,WUHU216HW,2013-03-07 11:17:00,
2013-03-07 06:22:00,34.6,30.4,30.15,NE,45,2.5,2.9,85,0.00,,,3.49,WUHU216HW,2013-03-07 11:22:00,
2013-03-07 06:27:00,34.6,30.4,30.15,NNW,338,0.4,3.4,85,0.00,,,3.49,WUHU216HW,2013-03-07 11:27:00,
2013-03-07 06:32:00,34.6,30.2,30.15,NE,45,0.7,3.4,84,0.00,,,3.49,WUHU216HW,2013-03-07 11:32:00,
2013-03-07 06:37:00,34.6,30.2,30.15,NNE,23,1.6,1.8,84,0.00,,,3.49,WUHU216HW,2013-03-07 11:37:00,
2013-03-07 06:42:00,34.6,30.2,30.15,NE,45,0.0,1.8,84,0.00,,,3.49,WUHU216HW,2013-03-07 11:42:00,
2013-03-07 06:47:00,34.6,30.2,30.15,ENE,68,2.5,2.5,84,0.00,,,3.49,WUHU216HW,2013-03-07 11:47:00,
2013-03-07 06:52:00,34.6,30.2,30.15,ESE,113,1.6,2.9,84,0.00,,,3.49,WUHU216HW,2013-03-07 11:52:00,
2013-03-07 06:57:00,34.6,30.2,30.15,NE,45,0.4,2.9,84,0.00,,,3.49,WUHU216HW,2013-03-07 11:57:00,
2013-03-07 07:02:00,34.9,30.5,30.15,NNE,23,1.1,1.6,84,0.00,,,3.98,WUHU216HW,2013-03-07 12:02:00,
2013-03-07 07:07:00,34.7,30.3,30.16,NNE,23,0.0,1.6,84,0.00,,,3.98,WUHU216HW,2013-03-07 12:07:00,
2013-03-07 07:12:00,34.7,30.3,30.16,ENE,68,0.7,1.6,84,0.00,,,3.98,WUHU216HW,2013-03-07 12:12:00,
2013-03-07 07:17:00,34.7,30.3,30.16,WSW,248,0.7,2.0,84,0.00,,,3.98,WUHU216HW,2013-03-07 12:17:00,
2013-03-07 07:22:00,34.7,30.3,30.16,NW,315,0.4,2.0,84,0.00,,,3.98,WUHU216HW,2013-03-07 12:22:00,
2013-03-07 07:27:00,34.7,30.3,30.16,SW,225,0.7,2.5,84,0.00,,,3.98,WUHU216HW,2013-03-07 12:27:00,
2013-03-07 07:32:00,34.7,30.6,30.16,NE,45,1.1,2.5,85,0.00,,,3.98,WUHU216HW,2013-03-07 12:32:00,
2013-03-07 07:37:00,34.7,30.6,30.17,NNE,23,1.1,1.8,85,0.00,,,3.98,WUHU216HW,2013-03-07 12:37:00,
2013-03-07 07:42:00,34.7,30.6,30.17,NE,45,1.1,3.4,85,0.00,,,3.98,WUHU216HW,2013-03-07 12:42:00,
2013-03-07 07:47:00,34.7,30.6,30.17,NNE,23,2.0,3.4,85,0.00,,,3.98,WUHU216HW,2013-03-07 12:47:00,
2013-03-07 07:52:00,34.7,30.6,30.17,NE,45,0.4,2.7,85,0.00,,,3.98,WUHU216HW,2013-03-07 12:52:00,
2013-03-07 07:57:00,34.9,30.8,30.17,NE,45,1.3,3.4,85,0.00,,,3.98,WUHU216HW,2013-03-07 12:57:00,
2013-03-07 08:02:00,34.9,30.8,30.17,ENE,68,2.7,4.0,85,0.00,,,4.48,WUHU216HW,2013-03-07 13:02:00,
2013-03-07 08:07:00,34.9,30.8,30.17,NE,45,1.3,4.0,85,0.00,,,4.48,WUHU216HW,2013-03-07 13:07:00,
2013-03-07 08:12:00,35.1,31.0,30.17,NNE,23,1.1,2.9,85,0.00,,,4.48,WUHU216HW,2013-03-07 13:12:00,
2013-03-07 08:17:00,35.3,31.1,30.18,NNE,23,2.2,2.5,85,0.00,,,4.48,WUHU216HW,2013-03-07 13:17:00,
2013-03-07 08:22:00,35.3,31.1,30.18,East,90,0.4,3.1,85,0.00,,,4.48,WUHU216HW,2013-03-07 13:22:00,
2013-03-07 08:27:00,35.5,31.3,30.18,NE,45,1.1,3.1,85,0.00,,,4.48,WUHU216HW,2013-03-07 13:27:00,
2013-03-07 08:33:00,35.6,31.5,30.18,NNE,23,1.1,1.8,85,0.00,,,4.48,WUHU216HW,2013-03-07 13:33:00,
2013-03-07 08:38:00,35.6,31.5,30.18,NE,45,1.1,3.4,85,0.00,,,4.48,WUHU216HW,2013-03-07 13:38:00,
2013-03-07 08:42:00,35.8,32.0,30.18,NE,45,2.9,3.6,86,0.00,,,4.48,WUHU216HW,2013-03-07 13:42:00,
2013-03-07 08:48:00,36.2,32.3,30.18,NNE,23,1.6,3.6,86,0.00,,,4.48,WUHU216HW,2013-03-07 13:48:00,
2013-03-07 08:52:00,36.4,32.2,30.18,WNW,293,0.7,3.4,85,0.00,,,4.48,WUHU216HW,2013-03-07 13:52:00,
2013-03-07 08:58:00,36.4,32.2,30.18,ESE,113,0.4,3.6,85,0.00,,,4.48,WUHU216HW,2013-03-07 13:58:00,
2013-03-07 09:03:00,36.4,32.2,30.18,ENE,68,2.7,3.6,85,0.00,,,4.98,WUHU216HW,2013-03-07 14:03:00,
2013-03-07 09:08:00,36.4,32.2,30.18,NE,45,3.6,3.6,85,0.00,,,4.98,WUHU216HW,2013-03-07 14:08:00,
2013-03-07 09:13:00,36.4,32.2,30.18,NE,45,3.4,3.6,85,0.00,,,4.98,WUHU216HW,2013-03-07 14:13:00,
2013-03-07 09:18:00,36.5,32.4,30.19,SSW,203,0.0,3.6,85,0.00,,,4.98,WUHU216HW,2013-03-07 14:18:00,
2013-03-07 09:23:00,36.4,32.0,30.18,ENE,68,1.1,3.4,84,0.00,,,4.98,WUHU216HW,2013-03-07 14:23:00,
2013-03-07 09:28:00,36.7,32.6,30.18,NE,45,0.0,3.4,85,0.00,,,4.98,WUHU216HW,2013-03-07 14:28:00,
2013-03-07 09:33:00,36.9,32.8,30.19,East,90,1.1,2.2,85,0.00,,,4.98,WUHU216HW,2013-03-07 14:33:00,
2013-03-07 09:38:00,37.3,32.9,30.19,NE,45,2.0,2.5,84,0.00,,,4.98,WUHU216HW,2013-03-07 14:38:00,
2013-03-07 09:43:00,37.4,33.0,30.19,NNE,23,1.8,3.4,84,0.00,,,4.98,WUHU216HW,2013-03-07 14:43:00,
2013-03-07 09:48:00,37.8,33.4,30.19,WNW,293,0.4,3.4,84,0.00,,,4.98,WUHU216HW,2013-03-07 14:48:00,
2013-03-07 09:53:00,38.2,33.8,30.19,NNE,23,0.0,3.1,84,0.00,,,4.98,WUHU216HW,2013-03-07 14:53:00,
2013-03-07 09:58:00,38.3,33.7,30.19,WSW,248,0.4,2.0,83,0.00,,,4.98,WUHU216HW,2013-03-07 14:58:00,
2013-03-07 10:03:00,38.2,33.1,30.19,ESE,113,1.1,2.0,82,0.00,,,5.48,WUHU216HW,2013-03-07 15:03:00,
2013-03-07 10:08:00,38.0,32.9,30.20,WNW,293,0.7,1.8,82,0.00,,,5.48,WUHU216HW,2013-03-07 15:08:00,
2013-03-07 10:13:00,38.0,32.9,30.20,NNW,338,1.1,1.8,82,0.00,,,5.48,WUHU216HW,2013-03-07 15:13:00,
2013-03-07 10:18:00,37.8,32.8,30.20,West,270,0.0,1.8,82,0.00,,,5.48,WUHU216HW,2013-03-07 15:18:00,
2013-03-07 10:22:00,37.8,32.8,30.20,NNE,23,2.2,2.2,82,0.00,,,5.48,WUHU216HW,2013-03-07 15:22:00,
2013-03-07 10:23:00,37.8,32.8,30.20,NNE,23,2.2,3.4,82,0.00,,,5.48,WUHU216HW,2013-03-07 15:23:00,
2013-03-07 10:28:00,37.8,32.8,30.20,NNE,23,2.2,3.4,82,0.00,,,5.48,WUHU216HW,2013-03-07 15:28:00,
2013-03-07 11:44:00,46.1,36.1,29.91,SE,135,2.2,2.2,68,0.00,,,5.48,WUHU216HW,2013-03-07 16:44:00,
2013-03-07 11:49:00,44.6,35.1,29.91,NE,45,4.0,4.7,69,0.00,,,0.00,WUHU216HW,2013-03-07 16:49:00,
2013-03-07 11:54:00,43.6,34.5,29.91,NNE,23,1.1,4.7,70,0.00,,,0.00,WUHU216HW,2013-03-07 16:54:00,
2013-03-07 11:59:00,43.0,34.0,29.91,NNW,338,0.9,4.7,70,0.00,,,0.00,WUHU216HW,2013-03-07 16:59:00,
2013-03-07 12:04:00,42.5,33.9,29.91,NNE,23,0.9,4.0,71,0.00,,,0.00,WUHU216HW,2013-03-07 17:04:00,
2013-03-07 12:09:00,42.1,33.5,29.91,NW,315,0.2,4.0,71,0.00,,,0.00,WUHU216HW,2013-03-07 17:09:00,
2013-03-07 12:14:00,41.8,33.1,29.91,ESE,113,3.6,3.6,71,0.00,,,0.00,WUHU216HW,2013-03-07 17:14:00,
2013-03-07 12:19:00,41.8,33.4,29.91,NNW,338,0.4,4.7,72,0.00,,,0.00,WUHU216HW,2013-03-07 17:19:00,
2013-03-07 12:24:00,41.6,33.2,29.91,NNW,338,0.7,4.7,72,0.00,,,0.00,WUHU216HW,2013-03-07 17:24:00,
2013-03-07 12:29:00,41.2,32.9,29.91,NE,45,0.9,2.5,72,0.00,,,0.00,WUHU216HW,2013-03-07 17:29:00,
2013-03-07 12:34:00,40.9,32.5,29.91,ESE,113,0.7,2.7,72,0.00,,,0.00,WUHU216HW,2013-03-07 17:34:00,
2013-03-07 12:39:00,40.3,32.0,29.91,WNW,293,1.6,2.7,72,0.00,,,0.00,WUHU216HW,2013-03-07 17:39:00,
2013-03-07 12:44:00,40.0,32.0,29.91,NNW,338,2.7,2.9,73,0.00,,,0.00,WUHU216HW,2013-03-07 17:44:00,
2013-03-07 12:49:00,39.6,31.6,29.91,NE,45,2.0,2.9,73,0.00,,,0.00,WUHU216HW,2013-03-07 17:49:00,
2013-03-07 12:54:00,39.1,31.4,29.91,SE,135,0.7,2.9,74,0.00,,,0.00,WUHU216HW,2013-03-07 17:54:00,
2013-03-07 12:59:00,39.1,31.4,29.91,NE,45,1.1,2.9,74,0.00,,,0.00,WUHU216HW,2013-03-07 17:59:00,
2013-03-07 13:04:00,39.2,32.0,29.91,NW,315,0.7,2.5,75,0.00,,,0.00,WUHU216HW,2013-03-07 18:04:00,
2013-03-07 13:09:00,39.4,32.1,29.91,WNW,293,1.8,3.1,75,0.00,,,0.00,WUHU216HW,2013-03-07 18:09:00,
2013-03-07 13:14:00,39.6,32.3,29.91,NW,315,0.7,3.1,75,0.00,,,0.00,WUHU216HW,2013-03-07 18:14:00,
2013-03-07 13:19:00,39.8,32.5,29.91,ENE,68,1.8,2.9,75,0.00,,,0.00,WUHU216HW,2013-03-07 18:19:00,
2013-03-07 13:24:00,40.0,32.7,29.90,South,180,1.6,3.1,75,0.00,,,0.00,WUHU216HW,2013-03-07 18:24:00,
2013-03-07 13:29:00,40.3,32.7,29.90,North,0,4.9,4.9,74,0.00,,,0.00,WUHU216HW,2013-03-07 18:29:00,
2013-03-07 13:34:00,40.7,33.0,29.90,East,90,1.1,4.9,74,0.00,,,0.00,WUHU216HW,2013-03-07 18:34:00,
2013-03-07 13:39:00,41.0,33.3,29.90,NNW,338,5.1,5.4,74,0.00,,,0.00,WUHU216HW,2013-03-07 18:39:00,
2013-03-07 13:44:00,40.9,32.9,29.90,NNW,338,0.9,5.4,73,0.00,,,0.00,WUHU216HW,2013-03-07 18:44:00,
2013-03-07 13:49:00,40.5,32.5,29.90,NW,315,1.1,4.0,73,0.00,,,0.00,WUHU216HW,2013-03-07 18:49:00,
2013-03-07 13:54:00,40.0,31.6,29.90,WSW,248,2.7,3.1,72,0.00,,,0.00,WUHU216HW,2013-03-07 18:54:00,
2013-03-07 13:59:00,39.6,31.3,29.90,NNW,338,2.5,2.9,72,0.00,,,0.00,WUHU216HW,2013-03-07 18:59:00,
2013-03-07 14:04:00,39.6,31.3,29.90,NNW,338,2.2,3.1,72,0.00,,,0.00,WUHU216HW,2013-03-07 19:04:00,
2013-03-07 14:09:00,39.4,31.2,29.90,ENE,68,0.7,5.1,72,0.00,,,0.00,WUHU216HW,2013-03-07 19:09:00,
2013-03-07 14:14:00,39.2,31.2,29.90,South,180,1.1,5.1,73,0.00,,,0.00,WUHU216HW,2013-03-07 19:14:00,
2013-03-07 14:19:00,39.1,31.2,29.90,ENE,68,1.8,4.7,73,0.00,,,0.00,WUHU216HW,2013-03-07 19:19:00,
2013-03-07 14:24:00,38.7,30.8,29.90,North,0,2.5,7.6,73,0.00,,,0.00,WUHU216HW,2013-03-07 19:24:00,
2013-03-07 14:29:00,38.5,31.0,29.90,NNE,23,1.6,7.6,74,0.00,,,0.00,WUHU216HW,2013-03-07 19:29:00,
2013-03-07 14:35:00,38.5,31.0,29.90,North,0,1.3,4.0,74,0.00,,,0.00,WUHU216HW,2013-03-07 19:35:00,
2013-03-07 14:40:00,38.7,31.2,29.90,NNW,338,1.6,3.4,74,0.00,,,0.00,WUHU216HW,2013-03-07 19:40:00,
2013-03-07 14:45:00,39.2,31.6,29.90,NNE,23,0.9,3.4,74,0.00,,,0.00,WUHU216HW,2013-03-07 19:45:00,
2013-03-07 14:50:00,39.6,32.0,29.90,South,180,0.4,3.4,74,0.00,,,0.00,WUHU216HW,2013-03-07 19:50:00,
2013-03-07 14:55:00,40.0,32.3,29.90,NNE,23,6.9,6.9,74,0.00,,,0.00,WUHU216HW,2013-03-07 19:55:00,
2013-03-07 15:00:00,40.0,32.0,29.90,ENE,68,2.2,6.9,73,0.00,,,0.00,WUHU216HW,2013-03-07 20:00:00,
2013-03-07 15:05:00,40.0,32.0,29.90,NW,315,1.8,5.8,73,0.00,,,0.00,WUHU216HW,2013-03-07 20:05:00,
2013-03-07 15:10:00,40.0,32.0,29.90,ENE,68,6.9,7.2,73,0.00,,,0.00,WUHU216HW,2013-03-07 20:10:00,
2013-03-07 15:16:00,40.0,31.6,29.90,WSW,248,3.6,7.4,72,0.00,,,0.00,WUHU216HW,2013-03-07 20:16:00,
2013-03-07 15:21:00,39.6,31.3,29.91,ENE,68,2.0,7.4,72,0.00,,,0.00,WUHU216HW,2013-03-07 20:21:00,
2013-03-07 15:26:00,39.6,31.3,29.90,NE,45,2.2,4.0,72,0.00,,,0.00,WUHU216HW,2013-03-07 20:26:00,
2013-03-07 15:31:00,39.8,31.4,29.90,ENE,68,0.4,4.9,72,0.00,,,0.00,WUHU216HW,2013-03-07 20:31:00,
2013-03-07 15:36:00,40.9,32.5,29.91,WNW,293,4.3,4.9,72,0.00,,,0.00,WUHU216HW,2013-03-07 20:36:00,
2013-03-07 15:41:00,41.8,33.1,29.91,NNE,23,2.0,4.7,71,0.00,,,0.00,WUHU216HW,2013-03-07 20:41:00,
2013-03-07 15:46:00,42.3,33.3,29.91,NE,45,2.7,5.6,70,0.00,,,0.00,WUHU216HW,2013-03-07 20:46:00,
2013-03-07 15:51:00,42.8,33.8,29.91,East,90,1.8,6.3,70,0.00,,,0.00,WUHU216HW,2013-03-07 20:51:00,
2013-03-07 15:56:00,42.3,33.0,29.91,NW,315,1.1,6.3,69,0.00,,,0.00,WUHU216HW,2013-03-07 20:56:00,
2013-03-07 16:01:00,41.9,31.8,29.91,NE,45,3.8,5.4,67,0.00,,,0.00,WUHU216HW,2013-03-07 21:01:00,
2013-03-07 16:06:00,41.8,32.0,29.91,NNE,23,3.4,5.6,68,0.00,,,0.00,WUHU216HW,2013-03-07 21:06:00,
2013-03-07 16:11:00,41.8,32.0,29.91,SSE,158,1.3,5.6,68,0.00,,,0.00,WUHU216HW,2013-03-07 21:11:00,
2013-03-07 16:16:00,41.6,31.8,29.91,NE,45,4.9,4.9,68,0.00,,,0.00,WUHU216HW,2013-03-07 21:16:00,
2013-03-07 16:21:00,41.4,31.7,29.91,NNE,23,3.1,6.3,68,0.00,,,0.00,WUHU216HW,2013-03-07 21:21:00,
2013-03-07 16:26:00,41.0,31.3,29.91,NE,45,4.3,6.3,68,0.00,,,0.00,WUHU216HW,2013-03-07 21:26:00,
2013-03-07 16:31:00,40.9,31.2,29.91,SE,135,3.8,6.3,68,0.00,,,0.00,WUHU216HW,2013-03-07 21:31:00,
2013-03-07 16:36:00,40.9,31.2,29.92,ENE,68,3.8,5.1,68,0.00,,,0.00,WUHU216HW,2013-03-07 21:36:00,
2013-03-07 16:41:00,40.7,31.0,29.92,NE,45,2.7,6.3,68,0.00,,,0.00,WUHU216HW,2013-03-07 21:41:00,
2013-03-07 16:46:00,40.7,31.0,29.92,ESE,113,1.8,6.3,68,0.00,,,0.00,WUHU216HW,2013-03-07 21:46:00,
2013-03-07 16:51:00,40.5,30.8,29.92,ESE,113,4.9,5.4,68,0.00,,,0.00,WUHU216HW,2013-03-07 21:51:00,
2013-03-07 16:56:00,40.7,31.3,29.92,South,180,3.4,5.6,69,0.00,,,0.00,WUHU216HW,2013-03-07 21:56:00,
2013-03-07 17:01:00,40.5,31.2,29.92,East,90,1.1,5.6,69,0.00,,,0.00,WUHU216HW,2013-03-07 22:01:00,
2013-03-07 17:07:00,40.3,31.0,29.92,East,90,4.3,6.5,69,0.00,,,0.00,WUHU216HW,2013-03-07 22:07:00,
2013-03-07 17:12:00,40.3,31.0,29.93,NE,45,3.4,6.5,69,0.00,,,0.00,WUHU216HW,2013-03-07 22:12:00,
2013-03-07 17:17:00,40.1,30.8,29.93,NE,45,1.1,4.7,69,0.00,,,0.00,WUHU216HW,2013-03-07 22:17:00,
2013-03-07 17:22:00,40.0,30.6,29.93,ENE,68,3.8,4.7,69,0.00,,,0.00,WUHU216HW,2013-03-07 22:22:00,
2013-03-07 17:27:00,39.8,30.4,29.93,NNW,338,2.5,4.7,69,0.00,,,0.00,WUHU216HW,2013-03-07 22:27:00,
2013-03-07 17:32:00,39.6,30.3,29.93,East,90,1.1,4.0,69,0.00,,,0.00,WUHU216HW,2013-03-07 22:32:00,
2013-03-07 17:37:00,39.6,30.3,29.93,NE,45,1.8,3.1,69,0.00,,,0.00,WUHU216HW,2013-03-07 22:37:00,
2013-03-07 17:42:00,39.6,30.3,29.93,ENE,68,1.8,3.8,69,0.00,,,0.00,WUHU216HW,2013-03-07 22:42:00,
2013-03-07 17:47:00,39.4,30.1,29.93,ENE,68,1.8,3.8,69,0.00,,,0.00,WUHU216HW,2013-03-07 22:47:00,
2013-03-07 17:52:00,39.2,29.9,29.93,NE,45,0.2,3.8,69,0.00,,,0.00,WUHU216HW,2013-03-07 22:52:00,
2013-03-07 17:57:00,39.1,29.7,29.93,NE,45,2.0,3.4,69,0.00,,,0.00,WUHU216HW,2013-03-07 22:57:00,
2013-03-07 18:02:00,38.7,29.8,29.94,NE,45,3.4,4.5,70,0.00,,,0.00,WUHU216HW,2013-03-07 23:02:00,
2013-03-07 18:07:00,38.3,29.4,29.94,ENE,68,2.5,5.1,70,0.00,,,0.00,WUHU216HW,2013-03-07 23:07:00,
2013-03-07 18:12:00,38.0,29.1,29.94,NE,45,2.0,5.1,70,0.00,,,0.00,WUHU216HW,2013-03-07 23:12:00,
2013-03-07 18:17:00,37.8,29.0,29.94,NE,45,1.1,3.6,70,0.00,,,0.00,WUHU216HW,2013-03-07 23:17:00,
2013-03-07 18:22:00,37.6,29.1,29.94,East,90,0.4,2.5,71,0.00,,,0.00,WUHU216HW,2013-03-07 23:22:00,
2013-03-07 18:27:00,37.4,29.0,29.94,ENE,68,0.0,1.8,71,0.00,,,0.00,WUHU216HW,2013-03-07 23:27:00,
2013-03-07 18:32:00,37.1,28.6,29.94,NE,45,1.8,2.2,71,0.00,,,0.00,WUHU216HW,2013-03-07 23:32:00,
2013-03-07 18:37:00,37.1,28.6,29.94,ENE,68,0.4,2.2,71,0.00,,,0.00,WUHU216HW,2013-03-07 23:37:00,
2013-03-07 18:42:00,36.7,28.3,29.94,ENE,68,0.0,1.8,71,0.00,,,0.00,WUHU216HW,2013-03-07 23:42:00,
2013-03-07 18:47:00,36.7,28.3,29.94,ESE,113,1.1,1.6,71,0.00,,,0.00,WUHU216HW,2013-03-07 23:47:00,
2013-03-07 18:52:00,36.4,28.2,29.94,ENE,68,0.4,2.5,72,0.00,,,0.00,WUHU216HW,2013-03-07 23:52:00,
2013-03-07 18:57:00,36.2,28.0,29.94,ENE,68,0.4,2.5,72,0.00,,,0.00,WUHU216HW,2013-03-07 23:57:00,
2013-03-07 19:02:00,36.0,27.8,29.94,NE,45,0.2,2.0,72,0.00,,,0.00,WUHU216HW,2013-03-08 00:02:00,
2013-03-07 19:07:00,35.6,27.5,29.95,NE,45,0.7,1.6,72,0.00,,,0.00,WUHU216HW,2013-03-08 00:07:00,
2013-03-07 19:12:00,35.6,27.8,29.95,ENE,68,0.4,1.3,73,0.00,,,0.00,WUHU216HW,2013-03-08 00:12:00,
2013-03-07 19:17:00,35.5,27.6,29.95,ESE,113,0.7,1.3,73,0.00,,,0.00,WUHU216HW,2013-03-08 00:17:00,
2013-03-07 19:22:00,35.3,27.5,29.95,ENE,68,0.4,1.1,73,0.00,,,0.00,WUHU216HW,2013-03-08 00:22:00,
2013-03-07 19:27:00,34.9,27.1,29.95,ENE,68,0.0,1.1,73,0.00,,,0.00,WUHU216HW,2013-03-08 00:27:00,
2013-03-07 19:32:00,34.7,26.9,29.95,ENE,68,0.0,0.4,73,0.00,,,0.00,WUHU216HW,2013-03-08 00:32:00,
2013-03-07 19:37:00,34.6,26.7,29.95,ENE,68,0.0,0.0,73,0.00,,,0.00,WUHU216HW,2013-03-08 00:37:00,
2013-03-07 19:42:00,34.2,26.4,29.95,ENE,68,0.0,0.0,73,0.00,,,0.00,WUHU216HW,2013-03-08 00:42:00,
2013-03-07 19:47:00,34.0,26.5,29.95,ENE,68,0.0,0.0,74,0.00,,,0.00,WUHU216HW,2013-03-08 00:47:00,
2013-03-07 19:52:00,33.8,26.3,29.95,ENE,68,0.0,0.0,74,0.00,,,0.00,WUHU216HW,2013-03-08 00:52:00,
2013-03-07 19:57:00,33.7,26.5,29.96,ENE,68,0.0,0.0,75,0.00,,,0.00,WUHU216HW,2013-03-08 00:57:00,
2013-03-07 20:03:00,33.7,26.5,29.95,NW,315,0.4,0.4,75,0.00,,,0.00,WUHU216HW,2013-03-08 01:03:00,
2013-03-07 20:08:00,33.5,26.3,29.96,NW,315,0.4,1.1,75,0.00,,,0.00,WUHU216HW,2013-03-08 01:08:00,
2013-03-07 20:13:00,33.5,26.3,29.96,NW,315,0.7,1.1,75,0.00,,,0.00,WUHU216HW,2013-03-08 01:13:00,
2013-03-07 20:18:00,33.3,26.5,29.96,NW,315,0.7,1.1,76,0.00,,,0.00,WUHU216HW,2013-03-08 01:18:00,
2013-03-07 20:23:00,33.3,26.5,29.96,NW,315,0.2,1.1,76,0.00,,,0.00,WUHU216HW,2013-03-08 01:23:00,
2013-03-07 20:28:00,33.3,26.5,29.96,NW,315,0.4,0.9,76,0.00,,,0.00,WUHU216HW,2013-03-08 01:28:00,
2013-03-07 20:33:00,33.3,26.5,29.96,NW,315,0.0,0.7,76,0.00,,,0.00,WUHU216HW,2013-03-08 01:33:00,
2013-03-07 20:38:00,33.5,26.6,29.96,NW,315,0.2,0.7,76,0.00,,,0.00,WUHU216HW,2013-03-08 01:38:00,
2013-03-07 20:43:00,33.5,26.6,29.96,NW,315,0.0,0.9,76,0.00,,,0.00,WUHU216HW,2013-03-08 01:43:00,
2013-03-07 20:48:00,33.5,26.6,29.96,NW,315,0.0,0.9,76,0.00,,,0.00,WUHU216HW,2013-03-08 01:48:00,
2013-03-07 20:53:00,33.5,26.6,29.96,NNW,338,0.9,0.9,76,0.00,,,0.00,WUHU216HW,2013-03-08 01:53:00,
2013-03-07 20:58:00,33.7,27.1,29.96,NE,45,0.4,0.9,77,0.00,,,0.00,WUHU216HW,2013-03-08 01:58:00,
2013-03-07 21:03:00,33.7,27.1,29.96,NNE,23,0.2,1.1,77,0.00,,,0.00,WUHU216HW,2013-03-08 02:03:00,
2013-03-07 21:08:00,33.7,27.1,29.96,North,0,0.0,1.1,77,0.00,,,0.00,WUHU216HW,2013-03-08 02:08:00,
2013-03-07 21:13:00,33.5,27.0,29.96,NE,45,0.0,1.6,77,0.00,,,0.00,WUHU216HW,2013-03-08 02:13:00,
2013-03-07 21:18:00,33.7,27.1,29.96,NE,45,0.0,1.6,77,0.00,,,0.00,WUHU216HW,2013-03-08 02:18:00,
2013-03-07 21:23:00,33.7,27.1,29.96,NE,45,0.0,0.9,77,0.00,,,0.00,WUHU216HW,2013-03-08 02:23:00,
2013-03-07 21:28:00,33.8,27.3,29.96,ENE,68,0.4,0.4,77,0.00,,,0.00,WUHU216HW,2013-03-08 02:28:00,
2013-03-07 21:33:00,33.8,27.6,29.96,ENE,68,0.0,0.4,78,0.00,,,0.00,WUHU216HW,2013-03-08 02:33:00,
2013-03-07 21:38:00,33.8,27.6,29.96,ENE,68,1.1,1.8,78,0.00,,,0.00,WUHU216HW,2013-03-08 02:38:00,
2013-03-07 21:43:00,33.8,27.6,29.96,East,90,0.4,1.8,78,0.00,,,0.00,WUHU216HW,2013-03-08 02:43:00,
2013-03-07 21:48:00,33.8,27.6,29.97,ENE,68,0.0,1.8,78,0.00,,,0.00,WUHU216HW,2013-03-08 02:48:00,
2013-03-07 21:53:00,33.8,27.6,29.97,NE,45,0.0,1.1,78,0.00,,,0.00,WUHU216HW,2013-03-08 02:53:00,
2013-03-07 21:58:00,33.7,27.8,29.97,NE,45,1.1,1.6,79,0.00,,,0.00,WUHU216HW,2013-03-08 02:58:00,
2013-03-07 22:03:00,33.5,27.6,29.96,NE,45,0.7,1.8,79,0.00,,,0.00,WUHU216HW,2013-03-08 03:03:00,
2013-03-07 22:08:00,33.5,27.6,29.96,ENE,68,0.4,1.8,79,0.00,,,0.00,WUHU216HW,2013-03-08 03:08:00,
2013-03-07 22:13:00,33.5,27.9,29.96,NNE,23,0.4,1.3,80,0.00,,,0.00,WUHU216HW,2013-03-08 03:13:00,
2013-03-07 22:18:00,33.5,27.9,29.96,NNE,23,0.0,1.3,80,0.00,,,0.00,WUHU216HW,2013-03-08 03:18:00,
2013-03-07 22:23:00,33.5,27.9,29.96,NNE,23,0.0,0.7,80,0.00,,,0.00,WUHU216HW,2013-03-08 03:23:00,
2013-03-07 22:28:00,33.3,27.8,29.96,NE,45,0.9,0.9,80,0.00,,,0.00,WUHU216HW,2013-03-08 03:28:00,
2013-03-07 22:33:00,33.3,27.8,29.96,NE,45,1.3,1.3,80,0.00,,,0.00,WUHU216HW,2013-03-08 03:33:00,
2013-03-07 22:38:00,33.3,28.1,29.96,NE,45,0.4,1.8,81,0.00,,,0.00,WUHU216HW,2013-03-08 03:38:00,
2013-03-07 22:43:00,33.1,27.9,29.96,NNE,23,0.0,1.8,81,0.00,,,0.00,WUHU216HW,2013-03-08 03:43:00,
2013-03-07 22:48:00,33.1,27.9,29.96,NNE,23,0.0,0.4,81,0.00,,,0.00,WUHU216HW,2013-03-08 03:48:00,
2013-03-07 22:53:00,33.1,27.9,29.96,NNE,23,0.0,0.0,81,0.00,,,0.00,WUHU216HW,2013-03-08 03:53:00,
2013-03-07 22:58:00,33.1,28.2,29.96,NNE,23,0.0,0.0,82,0.00,,,0.00,WUHU216HW,2013-03-08 03:58:00,
2013-03-07 23:03:00,33.1,28.2,29.96,NE,45,0.0,0.0,82,0.00,,,0.00,WUHU216HW,2013-03-08 04:03:00,
2013-03-07 23:08:00,33.1,28.2,29.96,North,0,0.0,0.0,82,0.00,,,0.00,WUHU216HW,2013-03-08 04:08:00,
2013-03-07 23:13:00,33.1,27.9,29.96,North,0,0.0,0.2,81,0.00,,,0.00,WUHU216HW,2013-03-08 04:13:00,
2013-03-07 23:18:00,32.9,27.7,29.96,North,0,0.0,0.2,81,0.00,,,0.00,WUHU216HW,2013-03-08 04:18:00,
2013-03-07 23:23:00,32.9,27.7,29.96,North,0,0.0,0.0,81,0.00,,,0.00,WUHU216HW,2013-03-08 04:23:00,
2013-03-07 23:28:00,32.9,27.7,29.96,North,0,0.0,0.0,81,0.00,,,0.00,WUHU216HW,2013-03-08 04:28:00,
2013-03-07 23:33:00,32.9,27.7,29.96,North,0,0.0,0.0,81,0.00,,,0.00,WUHU216HW,2013-03-08 04:33:00,
2013-03-07 23:38:00,32.8,27.5,29.96,North,0,0.0,0.0,81,0.00,,,0.00,WUHU216HW,2013-03-08 04:38:00,
2013-03-07 23:43:00,32.8,27.5,29.96,North,0,0.0,0.0,81,0.00,,,0.00,WUHU216HW,2013-03-08 04:43:00,
2013-03-07 23:48:00,32.8,27.5,29.96,NNW,338,0.0,0.2,81,0.00,,,0.00,WUHU216HW,2013-03-08 04:48:00,
2013-03-07 23:53:00,32.8,27.5,29.96,NNW,338,0.4,0.4,81,0.00,,,0.00,WUHU216HW,2013-03-08 04:53:00,
2013-03-07 23:58:00,32.8,27.9,29.96,NNW,338,0.0,0.9,82,0.00,,,0.00,WUHU216HW,2013-03-08 04:58:00,